Location: Arbon
(43.0005°N, 0.7472°E)
Time: 23:05:09
(UTC+00:00)

Tiros 1 despin weight - Visible Passes

Search period start: 29 July 2021 00:00
Search period end: 08 August 2021 00:00
Orbit: 593 x 642 km, 48.2° (Epoch: 29 July)

Date Brightness Start Highest point End Pass type
(mag) Time Alt. Az. Time Alt. Az. Time Alt. Az.
29 Jul ? 20:14:26 10° WNW 20:18:52 44° SW 20:22:45 13° SE visible
30 Jul ? 20:31:06 10° W 20:34:54 25° SW 20:38:17 12° S visible
31 Jul ? 20:48:35 10° WSW 20:50:47 13° SW 20:52:59 10° SSW visible
